^^
Station Historical Data
Daily Summary for February 8, 2018 Units:  English    Metric   Both
« Previous Day
Next Day »
Daily Weekly Monthly Yearly Custom
  High: Low: Average:
Temperature: TemperatureF °F 62.1 °F 69.1 °F
Dew Point: DewpointF °F 57.7 °F 63.1 °F
Humidity: Humidity% 58% 82%
Wind Speed: WindSpeedMPHmph 0.0mph 0mph
Wind Gust: WindSpeedGustMPHmph - -
Wind- - North
Pressure: PressureIn in 30.21 in -
Precipitation: 0.00 in    
Historical Graphs
 
 
Tabular Data for February 8, 2018
Time Temperature Dew Point Pressure Wind Wind Speed Wind Gust Humidity Rainfall Rate (Hourly) solar Conditions
TemperatureF °F DewpointF °F PressureIn in Calm     Humidity% HourlyPrecipIn in SolarRadiationWatts/m^2 W/m2 Conditions
00:04 72.0 °F 65.8 °F 30.23 in Calm     81% 0.00 in 0.0 W/m2 OVC
00:09 72.0 °F 65.8 °F 30.23 in Calm     81% 0.00 in 0.0 W/m2 OVC
00:14 72.0 °F 65.8 °F 30.23 in Calm     81% 0.00 in 0.0 W/m2 OVC
00:19 72.0 °F 65.8 °F 30.23 in Calm     81% 0.00 in 0.0 W/m2 OVC
00:24 72.0 °F 65.8 °F 30.23 in Calm     81% 0.00 in 0.0 W/m2 OVC
00:29 72.0 °F 65.8 °F 30.23 in Calm     81% 0.00 in 0.0 W/m2 OVC
00:34 72.0 °F 65.8 °F 30.23 in Calm     81% 0.00 in 0.0 W/m2 OVC
00:39 72.0 °F 65.8 °F 30.23 in Calm     81% 0.00 in 0.0 W/m2 OVC
00:44 72.0 °F 65.8 °F 30.23 in Calm     81% 0.00 in 0.0 W/m2 OVC
00:49 72.0 °F 65.8 °F 30.23 in Calm     81% 0.00 in 0.0 W/m2 OVC
00:54 72.0 °F 65.8 °F 30.23 in Calm     81% 0.00 in 0.0 W/m2 OVC
00:59 72.0 °F 65.8 °F 30.23 in Calm     81% 0.00 in 0.0 W/m2 OVC
01:04 70.0 °F 64.9 °F 30.23 in Calm     84% 0.00 in 0.0 W/m2 BKN
01:09 70.0 °F 64.9 °F 30.23 in Calm     84% 0.00 in 0.0 W/m2 BKN
01:14 70.0 °F 64.9 °F 30.23 in Calm     84% 0.00 in 0.0 W/m2 BKN
01:19 70.0 °F 64.9 °F 30.23 in Calm     84% 0.00 in 0.0 W/m2 BKN
01:24 70.0 °F 64.9 °F 30.23 in Calm     84% 0.00 in 0.0 W/m2 BKN
01:29 70.0 °F 64.9 °F 30.23 in Calm     84% 0.00 in 0.0 W/m2 BKN
01:34 70.0 °F 64.9 °F 30.23 in Calm     84% 0.00 in 0.0 W/m2 BKN
01:39 70.0 °F 64.9 °F 30.23 in Calm     84% 0.00 in 0.0 W/m2 BKN
01:44 70.0 °F 64.9 °F 30.23 in Calm     84% 0.00 in 0.0 W/m2 BKN
01:49 70.0 °F 64.9 °F 30.23 in Calm     84% 0.00 in 0.0 W/m2 BKN
01:54 70.0 °F 64.9 °F 30.23 in Calm     84% 0.00 in 0.0 W/m2 BKN
01:59 70.0 °F 64.9 °F 30.23 in Calm     84% 0.00 in 0.0 W/m2 BKN
02:04 68.0 °F 65.9 °F 30.22 in Calm     93% 0.00 in 0.0 W/m2 CLR
02:09 68.0 °F 65.9 °F 30.22 in Calm     93% 0.00 in 0.0 W/m2 CLR
02:14 68.0 °F 65.9 °F 30.22 in Calm     93% 0.00 in 0.0 W/m2 CLR
02:19 68.0 °F 65.9 °F 30.22 in Calm     93% 0.00 in 0.0 W/m2 CLR
02:24 68.0 °F 65.9 °F 30.22 in Calm     93% 0.00 in 0.0 W/m2 CLR
02:29 68.0 °F 65.9 °F 30.22 in Calm     93% 0.00 in 0.0 W/m2 CLR
02:34 68.0 °F 65.9 °F 30.22 in Calm     93% 0.00 in 0.0 W/m2 CLR
02:39 68.0 °F 65.9 °F 30.22 in Calm     93% 0.00 in 0.0 W/m2 CLR
02:44 68.0 °F 65.9 °F 30.22 in Calm     93% 0.00 in 0.0 W/m2 CLR
02:49 68.0 °F 65.9 °F 30.22 in Calm     93% 0.00 in 0.0 W/m2 CLR
02:54 68.0 °F 65.9 °F 30.22 in Calm     93% 0.00 in 0.0 W/m2 CLR
02:59 68.0 °F 65.9 °F 30.22 in Calm     93% 0.00 in 0.0 W/m2 CLR
03:04 64.9 °F 63.8 °F 30.21 in Calm     96% 0.00 in 0.0 W/m2 CLR
03:09 64.9 °F 63.8 °F 30.21 in Calm     96% 0.00 in 0.0 W/m2 CLR
03:14 64.9 °F 63.8 °F 30.21 in Calm     96% 0.00 in 0.0 W/m2 CLR
03:19 64.9 °F 63.8 °F 30.21 in Calm     96% 0.00 in 0.0 W/m2 CLR
03:24 64.9 °F 63.8 °F 30.21 in Calm     96% 0.00 in 0.0 W/m2 CLR
03:29 64.9 °F 63.8 °F 30.21 in Calm     96% 0.00 in 0.0 W/m2 CLR
03:34 64.9 °F 63.8 °F 30.21 in Calm     96% 0.00 in 0.0 W/m2 CLR
03:39 64.9 °F 63.8 °F 30.21 in Calm     96% 0.00 in 0.0 W/m2 CLR
03:44 64.9 °F 63.8 °F 30.21 in Calm     96% 0.00 in 0.0 W/m2 CLR
03:49 64.9 °F 63.8 °F 30.21 in Calm     96% 0.00 in 0.0 W/m2 CLR
03:54 64.9 °F 63.8 °F 30.21 in Calm     96% 0.00 in 0.0 W/m2 CLR
03:59 64.9 °F 63.8 °F 30.21 in Calm     96% 0.00 in 0.0 W/m2 CLR
04:04 66.9 °F 64.8 °F 30.21 in Calm     93% 0.00 in 0.0 W/m2 SCT
04:09 66.9 °F 64.8 °F 30.21 in Calm     93% 0.00 in 0.0 W/m2 SCT
04:14 66.9 °F 64.8 °F 30.21 in Calm     93% 0.00 in 0.0 W/m2 SCT
04:19 66.9 °F 64.8 °F 30.21 in Calm     93% 0.00 in 0.0 W/m2 SCT
04:24 66.9 °F 64.8 °F 30.21 in Calm     93% 0.00 in 0.0 W/m2 SCT
04:29 66.9 °F 64.8 °F 30.21 in Calm     93% 0.00 in 0.0 W/m2 SCT
04:34 66.9 °F 64.8 °F 30.21 in Calm     93% 0.00 in 0.0 W/m2 SCT
04:39 66.9 °F 64.8 °F 30.21 in Calm     93% 0.00 in 0.0 W/m2 SCT
04:44 66.9 °F 64.8 °F 30.21 in Calm     93% 0.00 in 0.0 W/m2 SCT
04:49 66.9 °F 64.8 °F 30.21 in Calm     93% 0.00 in 0.0 W/m2 SCT
04:54 66.9 °F 64.8 °F 30.21 in Calm     93% 0.00 in 0.0 W/m2 SCT
04:59 66.9 °F 64.8 °F 30.21 in Calm     93% 0.00 in 0.0 W/m2 SCT
05:04 68.0 °F 64.6 °F 30.22 in Calm     89% 0.00 in 0.0 W/m2 CLR
05:09 68.0 °F 64.6 °F 30.22 in Calm     89% 0.00 in 0.0 W/m2 CLR
05:14 68.0 °F 64.6 °F 30.22 in Calm     89% 0.00 in 0.0 W/m2 CLR
05:19 68.0 °F 64.6 °F 30.22 in Calm     89% 0.00 in 0.0 W/m2 CLR
05:24 68.0 °F 64.6 °F 30.22 in Calm     89% 0.00 in 0.0 W/m2 CLR
05:29 68.0 °F 64.6 °F 30.22 in Calm     89% 0.00 in 0.0 W/m2 CLR
05:34 68.0 °F 64.6 °F 30.22 in Calm     89% 0.00 in 0.0 W/m2 CLR
05:39 68.0 °F 64.6 °F 30.22 in Calm     89% 0.00 in 0.0 W/m2 CLR
05:44 68.0 °F 64.6 °F 30.22 in Calm     89% 0.00 in 0.0 W/m2 CLR
05:49 68.0 °F 64.6 °F 30.22 in Calm     89% 0.00 in 0.0 W/m2 CLR
05:54 68.0 °F 64.6 °F 30.22 in Calm     89% 0.00 in 0.0 W/m2 CLR
05:59 68.0 °F 64.6 °F 30.22 in Calm     89% 0.00 in 0.0 W/m2 CLR
06:04 66.0 °F 63.9 °F 30.23 in Calm     93% 0.00 in 0.0 W/m2 BKN
06:09 66.0 °F 63.9 °F 30.23 in Calm     93% 0.00 in 0.0 W/m2 BKN
06:14 66.0 °F 63.9 °F 30.23 in Calm     93% 0.00 in 0.0 W/m2 BKN
06:19 66.0 °F 63.9 °F 30.23 in Calm     93% 0.00 in 0.0 W/m2 BKN
06:24 66.0 °F 63.9 °F 30.23 in Calm     93% 0.00 in 0.0 W/m2 BKN
06:29 66.0 °F 63.9 °F 30.23 in Calm     93% 0.00 in 0.0 W/m2 BKN
06:34 66.0 °F 63.9 °F 30.23 in Calm     93% 0.00 in 0.0 W/m2 BKN
06:39 66.0 °F 63.9 °F 30.23 in Calm     93% 0.00 in 0.0 W/m2 BKN
06:44 66.0 °F 63.9 °F 30.23 in Calm     93% 0.00 in 0.0 W/m2 BKN
06:49 66.0 °F 63.9 °F 30.23 in Calm     93% 0.00 in 0.0 W/m2 BKN
06:54 66.0 °F 63.9 °F 30.23 in Calm     93% 0.00 in 0.0 W/m2 BKN
06:59 66.0 °F 63.9 °F 30.23 in Calm     93% 0.00 in 0.0 W/m2 BKN
07:04 64.9 °F 63.8 °F 30.25 in Calm     96% 0.00 in 0.0 W/m2 OVC
07:09 64.9 °F 63.8 °F 30.25 in Calm     96% 0.00 in 0.0 W/m2 OVC
07:14 64.9 °F 63.8 °F 30.25 in Calm     96% 0.00 in 0.0 W/m2 OVC
07:19 64.9 °F 63.8 °F 30.25 in Calm     96% 0.00 in 0.0 W/m2 OVC
07:24 64.9 °F 63.8 °F 30.25 in Calm     96% 0.00 in 0.0 W/m2 OVC
07:29 64.9 °F 63.8 °F 30.25 in Calm     96% 0.00 in 0.0 W/m2 OVC
07:34 64.9 °F 63.8 °F 30.26 in Calm     96% 0.00 in 0.0 W/m2 OVC
07:39 64.9 °F 63.8 °F 30.26 in Calm     96% 0.00 in 0.0 W/m2 OVC
07:44 64.9 °F 63.8 °F 30.26 in Calm     96% 0.00 in 0.0 W/m2 OVC
07:49 64.9 °F 63.8 °F 30.26 in Calm     96% 0.00 in 0.0 W/m2 OVC
07:54 64.9 °F 63.8 °F 30.26 in Calm     96% 0.00 in 0.0 W/m2 OVC
07:59 64.9 °F 63.8 °F 30.26 in Calm     96% 0.00 in 0.0 W/m2 OVC
08:04 66.9 °F 65.7 °F 30.25 in Calm     96% 0.00 in 0.0 W/m2 OVC
08:09 66.9 °F 65.7 °F 30.25 in Calm     96% 0.00 in 0.0 W/m2 OVC
08:14 66.9 °F 65.7 °F 30.25 in Calm     96% 0.00 in 0.0 W/m2 OVC
08:19 66.9 °F 65.7 °F 30.25 in Calm     96% 0.00 in 0.0 W/m2 OVC
08:24 66.9 °F 65.7 °F 30.25 in Calm     96% 0.00 in 0.0 W/m2 OVC
08:29 66.9 °F 65.7 °F 30.25 in Calm     96% 0.00 in 0.0 W/m2 OVC
08:34 66.9 °F 65.7 °F 30.25 in Calm     96% 0.00 in 0.0 W/m2 OVC
08:39 66.9 °F 65.7 °F 30.25 in Calm     96% 0.00 in 0.0 W/m2 OVC
08:44 66.9 °F 65.7 °F 30.25 in Calm     96% 0.00 in 0.0 W/m2 OVC
08:49 69.1 °F 65.7 °F 30.27 in Calm     89% 0.00 in 0.0 W/m2 OVC
08:54 69.1 °F 65.7 °F 30.27 in Calm     89% 0.00 in 0.0 W/m2 OVC
08:59 69.1 °F 65.7 °F 30.27 in Calm     89% 0.00 in 0.0 W/m2 OVC
09:04 69.1 °F 65.7 °F 30.27 in Calm     89% 0.00 in 0.0 W/m2 OVC
09:09 69.1 °F 65.7 °F 30.27 in Calm     89% 0.00 in 0.0 W/m2 OVC
09:14 69.1 °F 65.7 °F 30.27 in Calm     89% 0.00 in 0.0 W/m2 OVC
09:19 69.1 °F 65.7 °F 30.27 in Calm     89% 0.00 in 0.0 W/m2 OVC
09:24 69.1 °F 65.7 °F 30.27 in Calm     89% 0.00 in 0.0 W/m2 OVC
09:29 69.1 °F 65.7 °F 30.27 in Calm     89% 0.00 in 0.0 W/m2 OVC
09:34 69.1 °F 65.7 °F 30.27 in Calm     89% 0.00 in 0.0 W/m2 OVC
09:39 69.1 °F 65.7 °F 30.27 in Calm     89% 0.00 in 0.0 W/m2 OVC
09:44 69.1 °F 65.7 °F 30.27 in Calm     89% 0.00 in 0.0 W/m2 OVC
09:49 69.1 °F 65.7 °F 30.27 in Calm     89% 0.00 in 0.0 W/m2 OVC
09:54 69.1 °F 65.7 °F 30.27 in Calm     89% 0.00 in 0.0 W/m2 OVC
09:58 69.1 °F 65.7 °F 30.27 in Calm     89% 0.00 in 0.0 W/m2 OVC
10:03 72.0 °F 66.9 °F 30.28 in Calm     84% 0.00 in 0.0 W/m2 OVC
10:08 72.0 °F 66.9 °F 30.28 in Calm     84% 0.00 in 0.0 W/m2 OVC
10:13 72.0 °F 66.9 °F 30.28 in Calm     84% 0.00 in 0.0 W/m2 OVC
10:18 72.0 °F 66.9 °F 30.28 in Calm     84% 0.00 in 0.0 W/m2 OVC
10:23 72.0 °F 66.9 °F 30.28 in Calm     84% 0.00 in 0.0 W/m2 OVC
10:28 72.0 °F 66.9 °F 30.28 in Calm     84% 0.00 in 0.0 W/m2 OVC
10:33 72.0 °F 66.9 °F 30.28 in Calm     84% 0.00 in 0.0 W/m2 OVC
10:38 72.0 °F 66.9 °F 30.28 in Calm     84% 0.00 in 0.0 W/m2 OVC
10:43 72.0 °F 66.9 °F 30.28 in Calm     84% 0.00 in 0.0 W/m2 OVC
10:48 72.0 °F 66.9 °F 30.28 in Calm     84% 0.00 in 0.0 W/m2 SCT
10:53 72.0 °F 66.9 °F 30.28 in Calm     84% 0.00 in 0.0 W/m2 SCT
10:58 72.0 °F 66.9 °F 30.28 in Calm     84% 0.00 in 0.0 W/m2 SCT
11:03 78.1 °F 66.7 °F 30.27 in Calm     68% 0.00 in 0.0 W/m2 FEW
11:08 78.1 °F 66.7 °F 30.27 in Calm     68% 0.00 in 0.0 W/m2 FEW
11:13 78.1 °F 66.7 °F 30.27 in Calm     68% 0.00 in 0.0 W/m2 FEW
11:18 78.1 °F 66.7 °F 30.27 in Calm     68% 0.00 in 0.0 W/m2 FEW
11:23 78.1 °F 66.7 °F 30.27 in Calm     68% 0.00 in 0.0 W/m2 FEW
11:25 78.1 °F 66.7 °F 30.27 in Calm     68% 0.00 in 0.0 W/m2 FEW
11:30 78.1 °F 66.7 °F 30.27 in Calm     68% 0.00 in 0.0 W/m2 FEW
11:35 78.1 °F 66.7 °F 30.27 in Calm     68% 0.00 in 0.0 W/m2 FEW
11:40 78.1 °F 66.7 °F 30.27 in Calm     68% 0.00 in 0.0 W/m2 FEW
11:45 78.1 °F 66.7 °F 30.27 in Calm     68% 0.00 in 0.0 W/m2 FEW
11:50 78.1 °F 66.7 °F 30.27 in Calm     68% 0.00 in 0.0 W/m2 FEW
11:55 78.1 °F 66.7 °F 30.27 in Calm     68% 0.00 in 0.0 W/m2 FEW
12:00 78.1 °F 66.7 °F 30.27 in Calm     68% 0.00 in 0.0 W/m2 FEW
12:05 79.0 °F 66.6 °F 30.26 in Calm     66% 0.00 in 0.0 W/m2 CLR
12:10 79.0 °F 66.6 °F 30.26 in Calm     66% 0.00 in 0.0 W/m2 CLR
12:15 79.0 °F 66.6 °F 30.26 in Calm     66% 0.00 in 0.0 W/m2 CLR
12:20 79.0 °F 66.6 °F 30.26 in Calm     66% 0.00 in 0.0 W/m2 CLR
12:25 79.0 °F 66.6 °F 30.26 in Calm     66% 0.00 in 0.0 W/m2 CLR
12:30 79.0 °F 66.6 °F 30.26 in Calm     66% 0.00 in 0.0 W/m2 CLR
12:35 79.0 °F 66.6 °F 30.26 in Calm     66% 0.00 in 0.0 W/m2 CLR
12:40 79.0 °F 66.6 °F 30.26 in Calm     66% 0.00 in 0.0 W/m2 CLR
12:45 79.0 °F 66.6 °F 30.26 in Calm     66% 0.00 in 0.0 W/m2 CLR
12:50 79.0 °F 66.6 °F 30.26 in Calm     66% 0.00 in 0.0 W/m2 CLR
12:55 79.0 °F 66.6 °F 30.26 in Calm     66% 0.00 in 0.0 W/m2 CLR
13:00 79.0 °F 66.6 °F 30.26 in Calm     66% 0.00 in 0.0 W/m2 CLR
13:05 80.1 °F 65.9 °F 30.24 in Calm     62% 0.00 in 0.0 W/m2 OVC
13:10 80.1 °F 65.9 °F 30.24 in Calm     62% 0.00 in 0.0 W/m2 OVC
13:15 80.1 °F 65.9 °F 30.24 in Calm     62% 0.00 in 0.0 W/m2 OVC
13:20 80.1 °F 65.9 °F 30.24 in Calm     62% 0.00 in 0.0 W/m2 OVC
13:25 80.1 °F 65.9 °F 30.24 in Calm     62% 0.00 in 0.0 W/m2 OVC
13:30 80.1 °F 65.9 °F 30.24 in Calm     62% 0.00 in 0.0 W/m2 OVC
13:35 80.1 °F 65.9 °F 30.24 in Calm     62% 0.00 in 0.0 W/m2 OVC
13:40 80.1 °F 65.9 °F 30.24 in Calm     62% 0.00 in 0.0 W/m2 OVC
13:45 80.1 °F 65.9 °F 30.24 in Calm     62% 0.00 in 0.0 W/m2 OVC
13:50 80.1 °F 65.9 °F 30.24 in Calm     62% 0.00 in 0.0 W/m2 OVC
13:55 80.1 °F 65.9 °F 30.24 in Calm     62% 0.00 in 0.0 W/m2 OVC
14:00 80.1 °F 65.9 °F 30.24 in Calm     62% 0.00 in 0.0 W/m2 OVC
14:05 80.1 °F 64.0 °F 30.21 in Calm     58% 0.00 in 0.0 W/m2 OVC
14:10 80.1 °F 64.0 °F 30.21 in Calm     58% 0.00 in 0.0 W/m2 OVC
14:15 80.1 °F 64.0 °F 30.21 in Calm     58% 0.00 in 0.0 W/m2 OVC
14:20 80.1 °F 64.0 °F 30.21 in Calm     58% 0.00 in 0.0 W/m2 OVC
14:25 80.1 °F 64.0 °F 30.21 in Calm     58% 0.00 in 0.0 W/m2 OVC
14:30 80.1 °F 64.0 °F 30.21 in Calm     58% 0.00 in 0.0 W/m2 OVC
14:35 75.0 °F 65.8 °F 30.21 in Calm     73% 0.00 in 0.0 W/m2 OVC
14:40 75.0 °F 65.8 °F 30.21 in Calm     73% 0.00 in 0.0 W/m2 OVC
14:45 75.0 °F 65.8 °F 30.21 in Calm     73% 0.00 in 0.0 W/m2 OVC
14:50 73.0 °F 65.8 °F 30.21 in Calm     78% 0.00 in 0.0 W/m2 OVC
14:55 73.0 °F 65.8 °F 30.21 in Calm     78% 0.00 in 0.0 W/m2 OVC
15:00 73.0 °F 65.8 °F 30.21 in Calm     78% 0.00 in 0.0 W/m2 OVC
15:05 72.0 °F 64.0 °F 30.22 in Calm     76% 0.00 in 0.0 W/m2 OVC
15:10 72.0 °F 64.0 °F 30.22 in Calm     76% 0.00 in 0.0 W/m2 OVC
15:15 72.0 °F 64.0 °F 30.22 in Calm     76% 0.00 in 0.0 W/m2 OVC
15:20 72.0 °F 64.0 °F 30.22 in Calm     76% 0.00 in 0.0 W/m2 OVC
15:25 72.0 °F 64.0 °F 30.22 in Calm     76% 0.00 in 0.0 W/m2 OVC
15:30 72.0 °F 64.0 °F 30.22 in Calm     76% 0.00 in 0.0 W/m2 OVC
15:35 72.0 °F 64.0 °F 30.22 in Calm     76% 0.00 in 0.0 W/m2 OVC
15:40 72.0 °F 64.0 °F 30.22 in Calm     76% 0.00 in 0.0 W/m2 OVC
15:45 72.0 °F 64.0 °F 30.22 in Calm     76% 0.00 in 0.0 W/m2 OVC
15:50 72.0 °F 64.0 °F 30.22 in Calm     76% 0.00 in 0.0 W/m2 OVC
15:55 72.0 °F 64.0 °F 30.22 in Calm     76% 0.00 in 0.0 W/m2 OVC
16:00 72.0 °F 64.0 °F 30.22 in Calm     76% 0.00 in 0.0 W/m2 OVC
16:05 71.1 °F 62.7 °F 30.22 in Calm     75% 0.00 in 0.0 W/m2 OVC
16:10 71.1 °F 62.7 °F 30.22 in Calm     75% 0.00 in 0.0 W/m2 OVC
16:15 71.1 °F 62.7 °F 30.22 in Calm     75% 0.00 in 0.0 W/m2 OVC
16:20 71.1 °F 62.7 °F 30.22 in Calm     75% 0.00 in 0.0 W/m2 OVC
16:25 71.1 °F 62.7 °F 30.22 in Calm     75% 0.00 in 0.0 W/m2 OVC
16:30 71.1 °F 62.7 °F 30.22 in Calm     75% 0.00 in 0.0 W/m2 OVC
16:35 71.1 °F 62.7 °F 30.22 in Calm     75% 0.00 in 0.0 W/m2 OVC
16:40 71.1 °F 62.7 °F 30.22 in Calm     75% 0.00 in 0.0 W/m2 OVC
16:45 71.1 °F 62.7 °F 30.22 in Calm     75% 0.00 in 0.0 W/m2 OVC
16:50 71.1 °F 62.7 °F 30.22 in Calm     75% 0.00 in 0.0 W/m2 OVC
16:55 71.1 °F 62.7 °F 30.22 in Calm     75% 0.00 in 0.0 W/m2 OVC
17:00 71.1 °F 62.7 °F 30.22 in Calm     75% 0.00 in 0.0 W/m2 OVC
17:05 70.0 °F 59.7 °F 30.25 in Calm     70% 0.00 in 0.0 W/m2 OVC
17:10 70.0 °F 59.7 °F 30.25 in Calm     70% 0.00 in 0.0 W/m2 OVC
17:15 70.0 °F 59.7 °F 30.25 in Calm     70% 0.00 in 0.0 W/m2 OVC
17:20 70.0 °F 59.7 °F 30.25 in Calm     70% 0.00 in 0.0 W/m2 OVC
17:25 70.0 °F 59.7 °F 30.25 in Calm     70% 0.00 in 0.0 W/m2 OVC
17:30 70.0 °F 59.7 °F 30.25 in Calm     70% 0.00 in 0.0 W/m2 OVC
17:35 70.0 °F 59.7 °F 30.25 in Calm     70% 0.00 in 0.0 W/m2 OVC
17:40 70.0 °F 59.7 °F 30.25 in Calm     70% 0.00 in 0.0 W/m2 OVC
17:45 70.0 °F 59.7 °F 30.25 in Calm     70% 0.00 in 0.0 W/m2 OVC
17:50 70.0 °F 59.7 °F 30.25 in Calm     70% 0.00 in 0.0 W/m2 OVC
17:55 70.0 °F 59.7 °F 30.25 in Calm     70% 0.00 in 0.0 W/m2 OVC
18:00 70.0 °F 59.7 °F 30.25 in Calm     70% 0.00 in 0.0 W/m2 OVC
18:05 69.1 °F 60.1 °F 30.27 in Calm     73% 0.00 in 0.0 W/m2 OVC
18:10 69.1 °F 60.1 °F 30.27 in Calm     73% 0.00 in 0.0 W/m2 OVC
18:15 69.1 °F 60.1 °F 30.27 in Calm     73% 0.00 in 0.0 W/m2 OVC
18:20 69.1 °F 60.1 °F 30.27 in Calm     73% 0.00 in 0.0 W/m2 OVC
18:25 69.1 °F 60.1 °F 30.27 in Calm     73% 0.00 in 0.0 W/m2 OVC
18:30 69.1 °F 60.1 °F 30.27 in Calm     73% 0.00 in 0.0 W/m2 OVC
18:35 68.0 °F 59.8 °F 30.27 in Calm     75% 0.00 in 0.0 W/m2 OVC
18:40 68.0 °F 59.8 °F 30.27 in Calm     75% 0.00 in 0.0 W/m2 OVC
18:45 68.0 °F 59.8 °F 30.27 in Calm     75% 0.00 in 0.0 W/m2 OVC
18:50 68.0 °F 59.8 °F 30.27 in Calm     75% 0.00 in 0.0 W/m2 OVC
18:55 68.0 °F 59.8 °F 30.27 in Calm     75% 0.00 in 0.0 W/m2 OVC
19:00 68.0 °F 59.8 °F 30.27 in Calm     75% 0.00 in 0.0 W/m2 OVC
19:05 66.9 °F 59.8 °F 30.29 in Calm     78% 0.00 in 0.0 W/m2 OVC
19:10 66.9 °F 59.8 °F 30.29 in Calm     78% 0.00 in 0.0 W/m2 OVC
19:15 66.9 °F 59.8 °F 30.29 in Calm     78% 0.00 in 0.0 W/m2 OVC
19:20 66.9 °F 59.8 °F 30.29 in Calm     78% 0.00 in 0.0 W/m2 OVC
19:25 66.9 °F 59.8 °F 30.29 in Calm     78% 0.00 in 0.0 W/m2 OVC
19:30 66.9 °F 59.8 °F 30.29 in Calm     78% 0.00 in 0.0 W/m2 OVC
19:35 66.9 °F 59.8 °F 30.29 in Calm     78% 0.00 in 0.0 W/m2 OVC
19:40 66.9 °F 59.8 °F 30.29 in Calm     78% 0.00 in 0.0 W/m2 OVC
19:45 66.9 °F 59.8 °F 30.29 in Calm     78% 0.00 in 0.0 W/m2 OVC
19:50 66.9 °F 59.8 °F 30.29 in Calm     78% 0.00 in 0.0 W/m2 OVC
19:55 66.9 °F 59.8 °F 30.29 in Calm     78% 0.00 in 0.0 W/m2 OVC
20:00 66.9 °F 59.8 °F 30.29 in Calm     78% 0.00 in 0.0 W/m2 OVC
20:05 64.0 °F 58.8 °F 30.30 in Calm     83% 0.00 in 0.0 W/m2 SCT
20:10 64.0 °F 58.8 °F 30.30 in Calm     83% 0.00 in 0.0 W/m2 SCT
20:15 64.0 °F 58.8 °F 30.30 in Calm     83% 0.00 in 0.0 W/m2 SCT
20:20 64.0 °F 58.8 °F 30.30 in Calm     83% 0.00 in 0.0 W/m2 SCT
20:25 64.0 °F 58.8 °F 30.30 in Calm     83% 0.00 in 0.0 W/m2 SCT
20:30 64.0 °F 58.8 °F 30.30 in Calm     83% 0.00 in 0.0 W/m2 SCT
20:35 64.0 °F 58.8 °F 30.30 in Calm     83% 0.00 in 0.0 W/m2 SCT
20:40 64.0 °F 58.8 °F 30.30 in Calm     83% 0.00 in 0.0 W/m2 SCT
20:45 64.0 °F 58.8 °F 30.30 in Calm     83% 0.00 in 0.0 W/m2 SCT
20:50 64.0 °F 58.8 °F 30.30 in Calm     83% 0.00 in 0.0 W/m2 SCT
20:55 64.0 °F 58.8 °F 30.30 in Calm     83% 0.00 in 0.0 W/m2 SCT
21:00 64.0 °F 58.8 °F 30.30 in Calm     83% 0.00 in 0.0 W/m2 SCT
21:05 63.0 °F 57.7 °F 30.31 in Calm     83% 0.00 in 0.0 W/m2 BKN
21:10 63.0 °F 57.7 °F 30.31 in Calm     83% 0.00 in 0.0 W/m2 BKN
21:15 63.0 °F 57.7 °F 30.31 in Calm     83% 0.00 in 0.0 W/m2 BKN
21:20 63.0 °F 57.7 °F 30.31 in Calm     83% 0.00 in 0.0 W/m2 BKN
21:25 63.0 °F 57.7 °F 30.31 in Calm     83% 0.00 in 0.0 W/m2 BKN
21:30 63.0 °F 57.7 °F 30.31 in Calm     83% 0.00 in 0.0 W/m2 BKN
21:35 63.0 °F 57.7 °F 30.31 in Calm     83% 0.00 in 0.0 W/m2 BKN
21:40 63.0 °F 57.7 °F 30.31 in Calm     83% 0.00 in 0.0 W/m2 BKN
21:45 63.0 °F 57.7 °F 30.31 in Calm     83% 0.00 in 0.0 W/m2 BKN
21:50 63.0 °F 57.7 °F 30.31 in Calm     83% 0.00 in 0.0 W/m2 BKN
21:55 63.0 °F 57.7 °F 30.31 in Calm     83% 0.00 in 0.0 W/m2 BKN
22:00 63.0 °F 57.7 °F 30.31 in Calm     83% 0.00 in 0.0 W/m2 BKN
22:05 62.1 °F 57.8 °F 30.32 in Calm     86% 0.00 in 0.0 W/m2 OVC
22:10 62.1 °F 57.8 °F 30.32 in Calm     86% 0.00 in 0.0 W/m2 OVC
22:15 62.1 °F 57.8 °F 30.32 in Calm     86% 0.00 in 0.0 W/m2 OVC
22:20 62.1 °F 57.8 °F 30.32 in Calm     86% 0.00 in 0.0 W/m2 OVC
22:25 62.1 °F 57.8 °F 30.32 in Calm     86% 0.00 in 0.0 W/m2 OVC
22:30 62.1 °F 57.8 °F 30.32 in Calm     86% 0.00 in 0.0 W/m2 OVC
22:35 62.1 °F 57.8 °F 30.32 in Calm     86% 0.00 in 0.0 W/m2 OVC
22:40 62.1 °F 57.8 °F 30.32 in Calm     86% 0.00 in 0.0 W/m2 OVC
22:45 62.1 °F 57.8 °F 30.32 in Calm     86% 0.00 in 0.0 W/m2 OVC
22:50 62.1 °F 57.8 °F 30.32 in Calm     86% 0.00 in 0.0 W/m2 OVC
22:55 62.1 °F 57.8 °F 30.32 in Calm     86% 0.00 in 0.0 W/m2 OVC
23:00 62.1 °F 57.8 °F 30.32 in Calm     86% 0.00 in 0.0 W/m2 OVC
23:05 62.1 °F 57.8 °F 30.31 in Calm     86% 0.00 in 0.0 W/m2 BKN
23:10 62.1 °F 57.8 °F 30.31 in Calm     86% 0.00 in 0.0 W/m2 BKN
23:15 62.1 °F 57.8 °F 30.31 in Calm     86% 0.00 in 0.0 W/m2 BKN
23:20 62.1 °F 57.8 °F 30.31 in Calm     86% 0.00 in 0.0 W/m2 OVC
23:25 62.1 °F 57.8 °F 30.31 in Calm     86% 0.00 in 0.0 W/m2 OVC
23:30 62.1 °F 57.8 °F 30.31 in Calm     86% 0.00 in 0.0 W/m2 OVC
23:35 62.1 °F 57.8 °F 30.31 in Calm     86% 0.00 in 0.0 W/m2 OVC
23:40 62.1 °F 57.8 °F 30.31 in Calm     86% 0.00 in 0.0 W/m2 OVC
23:45 62.1 °F 57.8 °F 30.31 in Calm     86% 0.00 in 0.0 W/m2 OVC
23:50 62.1 °F 57.8 °F 30.31 in Calm     86% 0.00 in 0.0 W/m2 OVC
23:55 62.1 °F 57.8 °F 30.31 in Calm     86% 0.00 in 0.0 W/m2 OVC
Lake Mary, FL, USA
Compliments of Weather Underground - 1.75 mb